Wind_Speed
5 6 6 5 5 5 5 6 6 5 5 5 4 4 4 4 4 4 3 3 3 3 3 3 3 2 1 1 2 4 6 7 7 6 6 6 6 6 7 6 6 6 7
6 7 7 6 6 6 6 7 7 7 7 6 6 5 5 4 4 4 4 3 4 4 4 5 4 4 3 2 3 4 5 7 7 7 7 8 8 8 7 7 8 8 7
7 7 8 8 8 8 8 8 8 8 7 7 7 7 6 5 5 5 4 4 5 5 5 6 6 5 4 4 4 5 5 6 7 8 8 9 9 9 8 8 8 8 8
8 7 8 8 8 9 9 9 9 9 8 8 8 8 7 7 6 6 5 5 6 6 6 6 7 6 5 5 5 6 7 7 8 9 10 10 10 10 10 9 9 9 9
8 8 8 8 9 9 10 10 10 9 9 9 8 9 8 7 7 7 6 6 7 7 7 7 7 7 7 7 7 7 8 9 9 10 11 11 11 11 11 11 10 10 10
9 9 8 9 9 10 10 10 11 11 10 9 8 8 8 8 8 7 7 7 7 8 7 7 7 8 8 8 8 8 9 10 10 11 12 12 12 12 12 11 11 11 11
9 9 9 9 10 9 9 9 10 10 9 9 8 8 9 9 8 8 8 8 8 8 8 8 8 8 9 9 8 9 10 11 11 11 12 13 13 13 13 12 12 12 12
10 10 10 9 9 9 8 8 8 8 8 8 8 9 8 9 9 9 9 8 8 9 9 9 9 9 9 10 10 10 10 11 12 12 13 14 14 14 13 13 13 13 12
9 9 9 9 8 8 8 7 7 7 8 8 8 8 9 9 9 9 9 9 9 9 9 9 9 9 10 10 11 11 11 11 12 12 13 13 14 14 14 13 13 13 13
8 8 9 9 8 8 8 7 8 8 8 8 9 9 9 9 9 9 9 9 9 9 9 10 10 10 10 10 11 12 12 12 12 12 13 13 13 14 14 14 15 15 15
9 9 9 8 8 8 8 8 8 8 9 9 10 10 10 9 9 9 9 9 8 9 9 10 10 10 11 11 11 12 12 13 13 12 12 13 13 14 14 15 15 15 15
10 10 9 8 8 8 8 9 9 9 10 10 11 11 11 10 10 10 9 9 9 9 10 11 11 12 12 12 13 12 13 13 13 13 13 13 14 14 14 14 15 15 15
10 10 9 9 9 9 9 9 10 9 9 10 10 11 11 11 11 10 10 10 10 11 11 12 12 12 13 13 13 13 13 14 14 14 14 14 14 14 14 15 15 15 15
11 11 10 9 10 10 10 10 10 9 10 11 11 11 11 11 11 11 11 11 11 12 12 13 13 13 13 13 14 14 14 14 15 15 14 14 14 14 15 15 16 15 15
11 11 10 10 10 10 10 10 11 10 10 11 11 11 10 10 11 12 12 12 12 13 13 14 14 14 14 14 15 15 15 15 15 15 15 14 15 15 15 15 15 15 15
11 11 11 11 11 11 11 11 11 11 11 10 11 10 10 10 11 12 13 13 13 14 14 15 15 15 15 15 15 15 15 15 15 15 16 15 15 15 15 15 15 15 15
12 12 12 12 12 12 12 12 12 12 12 12 11 11 11 11 12 14 14 14 15 15 15 15 15 15 15 16 15 16 16 15 15 15 15 15 15 16 16 16 16 16 15
12 12 12 13 13 13 13 13 13 13 13 13 13 12 12 13 13 14 15 15 15 16 16 15 15 15 15 15 15 15 15 15 15 15 15 15 15 16 17 17 17 16 16
12 12 13 13 14 14 14 14 14 14 14 14 14 14 14 13 14 14 15 15 16 16 15 15 15 15 15 15 15 15 15 16 16 16 17 17 16 17 17 17 17 16 15
13 13 13 13 14 14 14 14 14 14 14 14 14 14 14 14 14 14 15 15 15 15 15 16 16 16 15 15 16 16 16 16 17 17 17 18 18 18 18 18 18 17 17
14 14 13 13 13 13 13 14 14 14 14 14 14 14 14 14 14 14 14 15 15 16 16 16 17 17 17 16 17 17 17 17 18 18 18 19 19 18 18 18 18 18 18
14 14 14 13 13 13 13 14 14 14 14 14 14 14 14 15 15 15 15 16 16 16 17 18 18 18 18 18 18 18 18 18 19 19 18 18 19 19 19 19 19 19 18
14 14 14 13 14 14 14 14 15 15 15 15 15 15 15 15 16 16 16 17 17 18 18 18 18 19 19 19 19 19 19 19 19 19 20 19 19 20 20 20 20 20 19
15 15 14 14 14 15 15 15 15 16 15 15 16 16 16 16 17 17 18 18 18 19 19 19 19 19 20 19 19 19 20 20 19 19 20 20 20 21 21 20 20 20 20
15 15 15 15 15 15 15 15 16 16 16 16 16 17 17 17 17 18 18 18 19 19 19 19 18 19 19 19 20 20 20 21 20 20 20 21 21 22 22 23 21 21 21
16 16 16 16 16 16 16 16 16 16 16 17 17 17 17 18 18 18 19 19 19 19 19 19 18 19 19 20 20 21 21 21 21 21 21 21 22 22 22 23 22 21 21
Wind_Direction
235 240 244 246 251 251 259 259 254 248 247 245 238 237 237 237 239 244 244 232 233 236 243 256 263 258 253 211 199 195 198 201 213 221 226 229 237 239 239 238 240 241 244
243 246 251 252 255 255 262 262 256 253 252 249 243 245 249 249 248 249 244 234 239 243 251 260 264 266 259 247 210 205 211 215 220 225 231 235 241 245 247 244 247 246 245
249 252 258 256 257 260 263 263 261 256 255 253 249 250 251 251 251 252 253 246 253 259 259 261 265 268 264 252 235 226 225 227 232 233 236 240 244 248 248 246 248 248 251
256 257 261 261 263 262 263 266 263 256 255 254 250 249 249 252 257 258 254 256 261 267 268 266 264 261 261 256 247 243 239 239 240 240 239 241 244 247 246 245 246 248 253
261 263 266 266 267 264 264 264 260 255 253 251 249 250 250 252 257 259 261 262 266 268 267 266 263 260 260 258 256 254 250 245 242 242 242 243 244 247 247 247 247 248 251
266 268 269 270 269 268 268 265 260 255 251 252 253 251 247 248 253 257 262 265 267 270 272 269 262 267 266 261 260 258 251 251 248 243 244 244 245 247 248 250 250 249 250
268 267 269 270 270 271 274 274 262 252 251 254 255 255 252 250 256 258 258 264 267 269 270 270 271 270 272 267 264 264 259 256 255 249 243 244 247 249 251 253 254 252 251
268 266 268 270 270 269 272 272 260 249 248 252 254 260 261 260 259 262 263 265 270 271 269 268 271 271 269 269 270 271 272 265 262 260 251 249 249 251 254 255 255 255 254
273 269 266 271 272 270 266 261 256 247 249 256 258 262 264 260 258 261 262 265 271 274 273 271 271 271 270 271 271 271 274 273 266 263 258 253 252 253 256 256 254 255 257
272 270 267 268 269 269 265 258 254 252 255 260 263 266 267 264 259 259 262 266 269 273 274 275 275 274 273 274 274 272 271 272 272 266 261 257 253 253 256 259 258 256 256
267 268 266 265 263 266 269 269 267 264 264 265 266 267 267 267 267 265 267 268 270 272 274 275 277 278 275 274 275 275 273 273 274 272 267 261 259 257 256 259 260 260 260
265 264 261 261 263 267 269 271 273 272 272 273 271 267 267 268 268 268 266 269 272 274 276 278 279 279 278 277 277 276 276 276 275 272 269 265 265 261 258 260 261 262 261
268 267 266 265 267 270 272 275 275 274 278 280 280 275 270 268 268 268 265 268 271 275 278 279 280 280 281 281 280 280 277 276 276 274 270 268 267 263 261 264 265 267 267
272 272 270 271 270 270 274 276 275 274 279 281 283 284 279 271 267 269 268 270 271 275 279 281 280 281 282 283 283 281 278 276 275 275 274 272 268 264 264 267 267 269 269
276 273 272 276 277 277 278 276 281 276 278 280 282 282 278 270 266 267 270 271 272 274 277 280 279 281 282 282 283 282 278 277 275 273 273 274 272 269 266 267 267 269 271
277 275 276 278 280 282 283 282 285 283 282 283 281 279 275 269 270 268 271 272 273 276 277 277 278 279 280 280 281 280 279 277 276 275 272 273 272 271 269 268 267 267 270
277 276 274 276 277 280 281 281 285 286 286 286 285 281 278 274 272 270 272 274 274 277 278 277 276 278 279 280 281 281 279 277 275 274 274 273 272 270 270 273 269 269 270
277 275 274 276 278 280 280 281 284 284 287 286 285 284 283 280 278 275 274 274 275 277 279 279 278 279 279 280 281 281 279 278 275 272 272 273 273 272 271 274 269 270 272
277 277 275 276 280 281 281 281 282 283 285 286 284 283 283 281 281 280 278 278 278 278 279 281 281 281 281 281 282 283 281 279 277 274 272 271 271 271 271 272 270 271 273
273 274 276 278 280 282 283 282 283 285 285 286 286 283 282 283 283 282 280 278 277 278 280 283 284 285 283 283 283 284 284 281 279 276 273 271 271 271 270 270 271 271 276
274 275 276 279 282 284 284 284 285 287 286 287 287 285 286 286 284 283 280 278 277 278 281 283 284 286 285 283 284 285 285 284 281 278 275 273 272 272 272 271 272 272 274
279 277 275 277 279 281 281 283 286 288 288 288 287 287 286 286 285 282 279 278 279 281 282 284 283 284 284 284 284 285 286 283 281 279 276 273 273 272 272 273 274 272 273
278 276 275 277 278 279 282 285 287 288 290 291 288 286 286 287 285 284 283 281 281 282 283 283 284 285 285 285 284 284 285 284 282 280 277 274 273 272 272 274 274 272 271
277 277 274 275 277 279 282 284 286 287 288 288 288 287 288 288 287 286 284 283 281 281 282 282 283 284 285 284 284 284 284 284 284 281 278 274 272 271 271 274 275 272 270
274 275 274 274 277 279 281 283 285 287 288 288 288 289 289 290 289 288 287 285 284 283 283 284 284 286 285 284 283 283 283 284 285 283 279 275 272 271 271 272 275 273 270
270 271 272 272 274 276 280 283 284 286 288 289 289 288 288 288 288 287 287 287 286 285 284 283 284 286 285 284 283 283 283 283 284 284 280 275 274 273 273 272 272 272 271
Height
5864 5865 5865 5865 5865 5866 5866 5866 5866 5866 5866 5866 5866 5866 5866 5866 5867 5867 5867 5867 5867 5867 5867 5867 5866 5865 5863 5861 5858 5858 5861 5865 5868 5870 5871 5872 5873 5874 5874 5875 5876 5876 5877
5864 5864 5864 5865 5865 5865 5865 5865 5865 5865 5865 5865 5865 5865 5866 5866 5866 5866 5866 5866 5867 5867 5867 5867 5866 5866 5864 5863 5862 5862 5864 5866 5868 5869 5870 5871 5872 5873 5873 5874 5875 5875 5876
5863 5863 5863 5864 5864 5864 5864 5864 5864 5864 5864 5864 5864 5864 5865 5865 5865 5866 5866 5866 5866 5867 5867 5867 5867 5866 5865 5865 5864 5864 5865 5866 5867 5869 5870 5870 5871 5872 5872 5873 5873 5874 5875
5862 5862 5862 5862 5862 5862 5862 5862 5862 5862 5862 5862 5863 5863 5864 5864 5864 5865 5865 5865 5866 5866 5866 5866 5866 5866 5866 5865 5865 5865 5865 5866 5867 5868 5868 5869 5870 5870 5871 5872 5872 5873 5873
5861 5861 5861 5861 5861 5861 5861 5860 5860 5860 5860 5861 5861 5862 5862 5863 5863 5864 5864 5864 5864 5865 5865 5865 5865 5865 5865 5865 5865 5865 5864 5865 5865 5866 5867 5868 5868 5869 5869 5870 5871 5871 5872
5859 5859 5859 5859 5859 5859 5858 5857 5857 5858 5858 5859 5860 5860 5861 5862 5862 5863 5863 5863 5863 5863 5864 5864 5864 5864 5864 5864 5864 5864 5863 5863 5864 5864 5865 5866 5867 5867 5868 5868 5869 5870 5870
5858 5858 5858 5858 5857 5856 5855 5854 5853 5855 5857 5858 5858 5859 5860 5860 5861 5861 5862 5862 5862 5862 5862 5862 5863 5863 5863 5863 5863 5863 5863 5863 5863 5863 5864 5864 5865 5865 5866 5867 5867 5868 5869
5856 5856 5856 5856 5855 5855 5853 5852 5851 5853 5855 5856 5857 5858 5858 5859 5859 5859 5860 5860 5861 5861 5861 5861 5861 5861 5861 5861 5861 5861 5861 5861 5862 5862 5862 5862 5863 5864 5864 5865 5865 5866 5866
5854 5854 5854 5854 5854 5853 5853 5852 5851 5853 5854 5855 5855 5856 5856 5857 5857 5858 5858 5859 5859 5859 5859 5859 5859 5859 5859 5859 5860 5860 5860 5860 5860 5860 5860 5860 5861 5861 5862 5862 5863 5864 5864
5852 5852 5853 5853 5853 5852 5852 5852 5852 5853 5853 5854 5854 5854 5855 5855 5855 5856 5856 5857 5857 5857 5857 5857 5857 5858 5857 5857 5858 5858 5858 5858 5858 5858 5858 5858 5858 5859 5860 5860 5860 5861 5862
5850 5851 5851 5851 5851 5851 5851 5851 5852 5852 5852 5852 5853 5853 5853 5853 5853 5854 5854 5855 5855 5855 5856 5855 5855 5855 5855 5855 5855 5856 5856 5856 5855 5856 5855 5856 5856 5856 5857 5857 5858 5858 5859
5849 5849 5849 5849 5849 5850 5850 5850 5850 5851 5851 5851 5851 5850 5850 5851 5851 5851 5852 5853 5853 5853 5854 5853 5853 5853 5853 5853 5853 5853 5853 5853 5853 5853 5853 5853 5853 5853 5854 5854 5855 5855 5856
5847 5847 5847 5847 5848 5848 5848 5848 5849 5849 5849 5849 5848 5848 5848 5848 5848 5849 5850 5851 5851 5851 5851 5851 5851 5851 5851 5850 5850 5850 5850 5850 5851 5851 5851 5851 5851 5851 5851 5852 5852 5853 5853
5845 5845 5845 5845 5846 5846 5846 5846 5847 5847 5847 5847 5846 5845 5844 5844 5845 5847 5848 5848 5849 5849 5849 5849 5849 5848 5848 5848 5848 5847 5847 5847 5848 5848 5848 5848 5848 5848 5848 5849 5849 5849 5850
5843 5843 5843 5843 5843 5844 5844 5844 5845 5845 5845 5844 5844 5843 5842 5842 5843 5844 5845 5846 5846 5846 5846 5846 5846 5845 5845 5845 5845 5844 5845 5844 5844 5845 5845 5845 5845 5845 5845 5845 5846 5846 5847
5841 5841 5841 5841 5842 5842 5842 5842 5842 5843 5843 5842 5842 5841 5841 5841 5841 5842 5843 5843 5843 5843 5843 5843 5843 5842 5842 5842 5841 5841 5841 5841 5841 5841 5842 5842 5842 5842 5842 5842 5842 5843 5843
5838 5838 5839 5839 5839 5840 5840 5840 5840 5840 5840 5840 5840 5840 5839 5839 5839 5839 5840 5840 5840 5840 5840 5840 5839 5839 5839 5838 5838 5838 5837 5837 5837 5838 5838 5838 5839 5839 5839 5839 5839 5839 5840
5836 5836 5836 5837 5837 5837 5837 5838 5838 5838 5838 5837 5838 5837 5837 5837 5837 5837 5837 5837 5837 5837 5837 5836 5836 5836 5836 5835 5835 5834 5834 5834 5834 5834 5834 5835 5835 5835 5836 5836 5835 5835 5836
5833 5833 5834 5834 5834 5834 5835 5835 5835 5835 5835 5835 5834 5834 5834 5834 5834 5834 5834 5834 5833 5833 5833 5833 5833 5833 5832 5832 5831 5831 5831 5830 5830 5830 5831 5831 5831 5832 5832 5832 5832 5832 5832
5830 5830 5831 5832 5832 5832 5832 5832 5832 5832 5831 5831 5831 5831 5831 5831 5830 5830 5830 5830 5830 5830 5830 5830 5830 5829 5829 5828 5828 5828 5827 5827 5826 5826 5827 5827 5827 5828 5828 5828 5829 5829 5829
5827 5828 5828 5829 5829 5829 5829 5829 5829 5829 5828 5828 5828 5828 5828 5828 5827 5827 5827 5827 5827 5827 5826 5826 5826 5826 5825 5825 5825 5824 5824 5823 5823 5823 5823 5823 5823 5824 5824 5824 5824 5824 5825
5825 5825 5825 5826 5826 5826 5826 5826 5826 5825 5825 5825 5825 5824 5824 5824 5824 5824 5824 5824 5823 5823 5823 5822 5822 5822 5821 5821 5821 5821 5820 5820 5819 5819 5819 5819 5819 5819 5819 5820 5820 5820 5820
5822 5822 5822 5822 5823 5823 5823 5823 5822 5822 5822 5821 5821 5821 5821 5820 5820 5820 5820 5820 5820 5819 5819 5819 5818 5818 5817 5817 5816 5816 5816 5815 5815 5814 5814 5814 5814 5815 5815 5815 5815 5816 5816
5818 5819 5819 5819 5819 5819 5819 5819 5819 5819 5819 5818 5818 5817 5817 5817 5816 5816 5816 5816 5815 5815 5815 5814 5814 5813 5813 5812 5812 5811 5811 5811 5810 5810 5810 5809 5809 5810 5810 5810 5810 5811 5811
5815 5815 5816 5816 5816 5816 5816 5816 5815 5815 5815 5815 5814 5814 5813 5813 5812 5811 5811 5811 5810 5810 5810 5809 5809 5808 5808 5807 5807 5806 5806 5805 5805 5805 5805 5805 5804 5804 5805 5805 5806 5806 5806
5811 5811 5812 5812 5812 5812 5812 5812 5811 5811 5811 5810 5810 5810 5809 5808 5808 5807 5806 5806 5805 5805 5805 5804 5804 5803 5803 5802 5802 5801 5800 5800 5799 5799 5799 5799 5799 5799 5799 5799 5800 5800 5800